Location: Unspecified
(44.4377°N, 88.0525°W)
Time: 15:03:03
(UTC-05:00)

ISS - Visible Passes

Search period start: 25 May 2017 00:00
Search period end: 04 June 2017 00:00
Orbit: 402 x 408 km, 51.6° (Epoch: 26 May)

Date Brightness Start Highest point End Pass type
(mag) Time Alt. Az. Time Alt. Az. Time Alt. Az.
25 May -1.3 00:16:10 10° WNW 00:18:55 24° N 00:21:39 10° NE visible
25 May -1.7 01:53:11 10° NW 01:56:05 28° NNE 01:58:59 10° ENE visible
25 May -4.0 03:29:34 10° WNW 03:32:51 80° SSW 03:36:07 10° SE visible
25 May -3.9 21:46:35 10° WSW 21:49:52 87° SSE 21:53:11 10° ENE visible
25 May -1.6 23:23:47 10° WNW 23:26:40 27° NNW 23:29:33 10° NE visible
26 May -1.4 01:01:06 10° NW 01:03:52 24° N 01:06:36 10° ENE visible
26 May -3.4 02:37:32 10° NW 02:40:48 61° NNE 02:44:03 10° ESE visible
26 May -2.5 04:14:33 10° W 04:17:02 20° SW 04:19:30 10° S visible
26 May -2.0 22:31:24 10° W 22:34:28 34° NNW 22:37:31 10° NE visible
27 May -1.2 00:08:54 10° NW 00:11:35 22° N 00:14:16 10° NE visible
27 May -2.5 01:45:32 10° NW 01:48:40 40° NNE 01:51:16 14° E visible
27 May -2.0 03:22:06 10° WNW 03:27:43 13° SSE 03:28:09 10° SSE visible
27 May -2.7 21:39:04 10° W 21:42:17 48° NNW 21:45:30 10° NE visible
27 May -1.3 23:16:36 10° WNW 23:19:18 23° N 23:22:01 10° NE visible
28 May -1.9 00:53:29 10° NW 00:56:28 30° NNE 00:57:35 24° NE visible
28 May -1.2 02:29:53 10° WNW 02:30:09 12° WNW 02:30:09 12° WNW visible
28 May -1.4 22:24:11 10° WNW 22:27:01 25° N 22:29:51 10° NE visible
29 May -1.5 00:01:24 10° NW 00:04:12 25° N 00:06:21 14° ENE visible
29 May -1.6 01:37:48 10° WNW 01:38:57 20° NW 01:38:57 20° NW visible
29 May -1.8 21:31:45 10° W 21:34:45 31° NNW 21:37:45 10° NE visible
29 May -1.3 23:09:12 10° NW 23:11:54 23° N 23:14:36 10° ENE visible
30 May -2.4 00:45:44 10° NW 00:48:08 37° NNW 00:48:08 37° NNW visible
30 May -1.3 22:16:53 10° WNW 22:19:35 22° N 22:22:17 10° NE visible
30 May -2.2 23:53:40 10° NW 23:56:43 33° NNE 23:57:26 30° NE visible
31 May -1.4 21:24:28 10° WNW 21:27:15 24° N 21:30:02 10° NE visible
31 May -1.7 23:01:34 10° NW 23:04:26 27° NNE 23:06:50 13° ENE visible
01 Jun -1.9 00:37:57 10° WNW 00:39:27 25° WNW 00:39:27 25° WNW visible
01 Jun -1.5 22:09:22 10° NW 22:12:06 23° N 22:14:50 10° ENE visible
01 Jun -3.1 23:45:50 10° NW 23:48:54 54° N 23:48:54 54° N visible
02 Jun -1.4 21:17:03 10° NW 21:19:45 22° N 21:22:26 10° NE visible
02 Jun -2.5 22:53:44 10° NW 22:56:51 37° NNE 22:58:22 23° ENE visible
03 Jun -1.3 00:30:15 10° WNW 00:31:01 16° WNW 00:31:01 16° WNW visible
03 Jun -2.0 22:01:36 10° NW 22:04:33 29° NNE 22:07:28 10° ENE visible
03 Jun -3.1 23:38:00 10° WNW 23:40:32 49° WNW 23:40:32 49° WNW visible
